TimePDT,TemperatureF,Dew PointF,Humidity,Sea Level PressureIn,VisibilityMPH,Wind Direction,Wind SpeedMPH,Gust SpeedMPH,PrecipitationIn,Events,Conditions,WindDirDegrees,DateUTC
12:56 AM,62.1,21.0,21,30.09,10.0,NNW,6.9,-,N/A,,Clear,330,2011-11-02 07:56:00
1:56 AM,62.1,21.9,21,30.09,10.0,NW,3.5,-,N/A,,Clear,310,2011-11-02 08:56:00
2:56 AM,62.1,21.0,21,30.09,10.0,NW,5.8,-,N/A,,Clear,310,2011-11-02 09:56:00
3:56 AM,62.1,21.0,21,30.08,10.0,NNW,11.5,-,N/A,,Clear,340,2011-11-02 10:56:00
4:56 AM,63.0,19.9,19,30.08,10.0,NW,6.9,-,N/A,,Clear,310,2011-11-02 11:56:00
5:56 AM,57.0,21.9,26,30.10,10.0,Calm,Calm,-,N/A,,Clear,0,2011-11-02 12:56:00
7:56 AM,57.9,19.0,22,30.12,10.0,WSW,3.5,-,N/A,,Clear,250,2011-11-02 14:56:00
8:56 AM,62.1,19.9,20,30.14,10.0,WSW,5.8,-,N/A,,Clear,250,2011-11-02 15:56:00
9:56 AM,66.0,21.9,19,30.15,10.0,WSW,3.5,-,N/A,,Clear,250,2011-11-02 16:56:00
10:56 AM,70.0,21.9,16,30.14,10.0,Calm,Calm,-,N/A,,Clear,0,2011-11-02 17:56:00
11:56 AM,72.0,23.0,16,30.12,10.0,Calm,Calm,-,N/A,,Clear,0,2011-11-02 18:56:00
12:56 PM,75.0,21.9,14,30.10,10.0,North,3.5,-,N/A,,Clear,10,2011-11-02 19:56:00
1:56 PM,75.9,23.0,14,30.08,10.0,North,4.6,-,N/A,,Clear,360,2011-11-02 20:56:00
2:56 PM,77.0,28.0,17,30.06,10.0,NNW,6.9,-,N/A,,Clear,330,2011-11-02 21:56:00
3:56 PM,78.1,26.1,15,30.04,10.0,NNW,6.9,-,N/A,,Clear,340,2011-11-02 22:56:00
4:56 PM,75.0,37.0,25,30.03,10.0,North,6.9,-,N/A,,Clear,360,2011-11-02 23:56:00
5:56 PM,70.0,33.1,26,30.02,10.0,North,3.5,-,N/A,,Clear,350,2011-11-03 00:56:00
6:56 PM,69.1,37.9,32,30.02,10.0,Calm,Calm,-,N/A,,Clear,0,2011-11-03 01:56:00
7:56 PM,66.9,39.9,37,30.03,10.0,Calm,Calm,-,N/A,,Clear,0,2011-11-03 02:56:00
8:56 PM,64.0,37.0,37,30.03,10.0,Calm,Calm,-,N/A,,Clear,0,2011-11-03 03:56:00
9:56 PM,62.1,37.0,39,30.03,10.0,SSE,3.5,-,N/A,,Clear,150,2011-11-03 04:56:00
10:56 PM,60.1,37.9,44,30.03,10.0,SE,3.5,-,N/A,,Clear,140,2011-11-03 05:56:00
11:56 PM,60.1,37.0,42,30.02,10.0,SE,3.5,-,N/A,,Clear,140,2011-11-03 06:56:00